Torna al catalogo

STARLINK-33704

AttivoComunicazioniVLEO
NORAD 63650·PAYLOAD·🇺🇸 United States

Lanciato Apr 25, 2025 da Cape Canaveral Space Force Station

Loading…

Prossimi Passaggi (prossime 24 ore)

TLE

AggiornatoSource: CelesTrak SupGP

Epoca: Sep 14, 2026, 22:31 UTC

1 63650C 25083S   26257.93868056 -.00001619  00000+0 -58641-4 0  2578
2 63650  43.0023  16.3868 0001490 271.6738 336.0911 15.27582867    19

Traccia STARLINK-33704 in tempo reale con AllMySat

Download on the App Store